Starlink 31369

operational
NORAD ID: 58975 Int'l Des: 2024-031 Owner: SPXS Country: US Constellation: starlink
LEOCIRCULAR

关于 Starlink 31369

正在加载描述...

实时位置

正在加载3D地球...

即将过境

高度历史

Altitude vs Time

uPlot chart will show altitude changes over time

两行轨道根数

1 58975U 24031L 26035.31978881 -.00002826 00000-0 -83301-4 0 9994
2 58975 53.1595 91.7231 0001269 105.8218 254.2923 15.30204313111406
Epoch: Feb 4, 2026 • Age: 5 hours

当前状态

高度 480.1 km
速度 7.63 km/s
星下点 48.85°N, 175.65°W
发射日期 Feb 15, 2024
运行时间 1.9 years
类型 internet

技术详情

分类 Payload
质量 730.00 kg
干质量 700.00 kg
总质量 730.00 kg
长度 0.30 m
直径 4.10 m
跨度 29.00 m
形状 Box + pan
制造商 SPXS
平台类型 Starlink V2M
阶段状态 In Orbit
所有者/国家 SPXS/US

大型星座

Loading constellations...